NETSAT-4

Last updated on Sat Aug 15 2026 00:03:44 GMT+0000 (Coordinated Universal Time)

1 46504U 20068U 26226.55229163 .00011182 00000+0 23379-3 0 9995 2 46504 97.8609 239.5690 0007310 106.6380 253.5671 15.45650431324786
UTC large
Height (km)
Speed (km/s)
/
Latitude / Longitude
Inclination (degrees)
Orbital Period (minutes)
Azimuth
Elevation
Range (km)
Doppler Factor

Next 0 passes for location: London (51.5072 / 0.1276)

No passes found over London.
NETSAT-4